This demonstration page uses our WeatherBlox Daily Observations layout. Learn more.

Left ArrowRight Arrow

39.95238, -75.16362

Hourly Observations for August 27, 2022

Temp ( °F °C ) Dew Point ( °F °C ) Humidity (%) Winds ( mph kmh ) Pressure ( in mb ) Visibility ( mi km ) Precip ( " mm )
12:54 am 00:54 Mostly Cloudy 79 26.1 69 20.6 72 72 SSW 6 9 29.94 1014 10 16 0.00 0.00
1:54 am 01:54 Mostly Cloudy 79 26.1 70 21.1 74 74 SW 7 11 29.94 1014 10 16 0.00 0.00
2:54 am 02:54 Mostly Clear 77 25 71 21.7 82 82 SW 8 13 29.93 1014 10 16 0.00 0.00
3:54 am 03:54 Mostly Clear 77 25 71 21.7 82 82 WSW 5 7 29.93 1014 10 16 0.00 0.00
4:54 am 04:54 Mostly Cloudy 76 24.4 72 22.2 88 88 W 3 6 29.93 1014 10 16 0.00 0.00
5:54 am 05:54 Mostly Cloudy 76 24.4 69 20.6 79 79 NW 7 11 29.95 1014 10 16 0.00 0.00
6:54 am 06:54 Partly Cloudy 75 23.9 67 19.4 76 76 N 7 11 29.97 1015 10 16 0.00 0.00
7:54 am 07:54 Partly Cloudy 78 25.6 66 18.9 67 67 N 9 15 29.99 1016 10 16 0.00 0.00
8:54 am 08:54 Partly Cloudy 81 27.2 66 18.9 61 61 NE 9 15 30.00 1016 10 16 0.00 0.00
9:54 am 09:54 Partly Cloudy 84 28.9 64 17.8 51 51 NNE 8 13 30.01 1016 10 16 0.00 0.00
10:54 am 10:54 Partly Cloudy 87 30.6 63 17.2 45 45 NE 10 17 30.01 1016 10 16 0.00 0.00
11:54 am 11:54 Partly Cloudy 88 31.1 63 17.2 43 43 NNE 10 17 30.00 1016 10 16 0.00 0.00
12:54 pm 12:54 Partly Cloudy 90 32.2 63 17.2 41 41 NNE 6 9 30.00 1016 10 16 0.00 0.00
1:54 pm 13:54 Partly Cloudy 91 32.8 62 16.7 38 38 ESE 6 9 29.98 1015 10 16 0.00 0.00
2:54 pm 14:54 Partly Cloudy 92 33.3 62 16.7 37 37 VRB 7 11 29.97 1015 10 16 0.00 0.00
3:54 pm 15:54 Mostly Cloudy 90 32.2 63 17.2 41 41 SSE 3 6 29.96 1015 10 16 0.00 0.00
4:54 pm 16:54 Mostly Cloudy 92 33.3 61 16.1 36 36 VRB 5 7 29.96 1015 10 16 0.00 0.00
5:54 pm 17:54 Mostly Cloudy 89 31.7 62 16.7 41 41 ENE 5 7 29.98 1015 10 16 0.00 0.00
6:54 pm 18:54 Mostly Cloudy 83 28.3 70 21.1 65 65 SE 9 15 29.99 1016 10 16 0.00 0.00
7:54 pm 19:54 Partly Cloudy 81 27.2 72 22.2 74 74 ESE 6 9 30.00 1016 10 16 0.00 0.00
8:54 pm 20:54 Mostly Cloudy 80 26.7 68 20 67 67 ESE 8 13 30.03 1017 10 16 0.00 0.00
9:54 pm 21:54 Mostly Cloudy 80 26.7 68 20 67 67 ESE 6 9 30.05 1018 10 16 0.00 0.00
10:54 pm 22:54 Mostly Cloudy 79 26.1 68 20 69 69 Calm 30.06 1018 10 16 0.00 0.00
11:54 pm 23:54 Partly Cloudy 78 25.6 68 20 71 71 ESE 3 6 30.06 1018 10 16 0.00 0.00

Powered by AerisWeather